sat.trackr.live / text

‹ back to catalog

STARLINK-32106

NORAD 59690 · 2024-086J

PAYLOAD ACTIVE UNKNOWN

§ Identity

Operator
Country
US
Launch date
2024-05-08
Launch site
AFETR
Launch vehicle
Mass (kg)
RCS (m²)

Purposes: comms

External: N2YO · Heavens-Above · Gunter

§ Orbital elements

Epoch: 2026-05-24T22:48:00.063072Z

Period
94.27 min
Inclination
43.0028°
Eccentricity
0.0001361
Mean motion
15.27577904 rev/d
Perigee alt
482.1 km
Apogee alt
484.0 km
Semi-major
6,861.2 km
B*
2.3317e-5
RAAN
341.5687°
Arg perigee
269.4222°
Mean anomaly
90.6474°
Rev number
11,586

§ Raw data

STARLINK-321061 59690U 24086J   26144.95000073  .00000379  00000+0  23317-4 0  99982 59690  43.0028 341.5687 0001361 269.4222  90.6474 15.27577904115868

JSON: /api/v1/satellites/59690 · /tle

For live sub-satellite position, see the globe view (requires WebGL).

§ Visibility from observer

Set your observer location to see the next 7 days of passes ≥ 10°. The values pass through the URL so the page stays shareable.

No JS? Fill the form by hand. The geolocation button needs JavaScript.